Weather History for Du Bois, PA

Change the Weather History Date:

Saturday, December 17, 2011

  Actual Average Record
Temperature  
Mean Temperature 26 °F 27 °F  
Max Temperature 29 °F 34 °F 61 °F (1984)
Min Temperature 22 °F 21 °F -2 °F (1989)
Degree Days  
Heating Degree Days 39 38  
Month to date heating degree days 522 594  
Since 1 July heating degree days 1443 2111  
Cooling Degree Days 0 0  
Month to date cooling degree days 0 0  
Year to date cooling degree days 0 362  
Moisture  
Dew Point 22 °F    
Average Humidity 83    
Maximum Humidity 96    
Minimum Humidity 69    
Precipitation  
Precipitation T in 0.10 in 1.76 in (2001)
Month to date precipitation 0.46 1.78  
Sea Level Pressure  
Sea Level Pressure 30.15 in    
Wind  
Wind Speed 7 mph (NW)    
Max Wind Speed 14 mph    
Max Gust Speed 21 mph    
Visibility 8 miles    
Events Fog , Snow    
T = Trace of Precipitation, MM = Missing Value Source: NWS Daily Summary

Daily Weather History Graph

Daily Weather History Graph

Search for Another Location

Airport:

Trip Planner

Search our weather history database for the weather conditions in past years. The results will help you decide how hot, cold, wet, or windy it might be!

Date:

Astronomy

Dec. 17, 2011 Rise Set
Actual Time 7:35 AM EST 4:48 PM EST
Civil Twilight 7:03 AM EST 5:19 PM EST
Nautical Twilight 6:29 AM EST 5:54 PM EST
Astronomical Twilight 5:55 AM EST 6:27 PM EST
Moon No Moon Rise 11:45 AM EST (12/17)
Length of Visible Light 10h 15m
Length of Day
9h 12m
Waning Gibbous, 54% of the Moon is Illuminated
Dec 17
Waning Gibbous
Dec 17
Last Quarter
Dec 24
New
Jan 1
First Quarter
Jan 9
Full

Hourly Weather History & Observations

Time (EST) Temp. Windchill Dew Point Humidity Pressure Visibility Wind Dir Wind Speed Gust Speed Precip Events Conditions
12:56 AM 28.9 °F 20.4 °F 23.0 °F 78% 30.19 in 10.0 mi West 9.2 mph - N/A   Overcast
1:56 AM 28.0 °F 19.3 °F 21.9 °F 78% 30.18 in 10.0 mi West 9.2 mph - N/A   Overcast
2:56 AM 28.0 °F 19.3 °F 21.9 °F 78% 30.18 in 10.0 mi West 9.2 mph - N/A   Overcast
3:56 AM 28.0 °F 20.0 °F 24.1 °F 85% 30.18 in 10.0 mi West 8.1 mph - N/A   Overcast
4:56 AM 28.0 °F 20.8 °F 24.1 °F 85% 30.19 in 10.0 mi West 6.9 mph - N/A   Overcast
5:56 AM 28.0 °F 19.3 °F 24.1 °F 85% 30.20 in 10.0 mi West 9.2 mph - N/A   Overcast
6:56 AM 28.0 °F 20.0 °F 23.0 °F 81% 30.20 in 10.0 mi West 8.1 mph - N/A   Overcast
7:56 AM 28.0 °F 20.8 °F 23.0 °F 81% 30.19 in 10.0 mi West 6.9 mph - N/A   Overcast
8:03 AM 28.4 °F 19.7 °F 23.0 °F 80% 30.13 in 10.0 mi West 9.2 mph - N/A   Overcast
8:25 AM 28.4 °F 18.5 °F 23.0 °F 80% 30.14 in 10.0 mi West 11.5 mph - N/A   Overcast
8:56 AM 28.0 °F 19.3 °F 23.0 °F 81% 30.19 in 10.0 mi WNW 9.2 mph - N/A   Overcast
9:11 AM 28.4 °F 21.2 °F 23.0 °F 80% 30.14 in 10.0 mi West 6.9 mph - N/A   Overcast
9:56 AM 28.0 °F 20.0 °F 24.1 °F 85% 30.21 in 5.0 mi NW 8.1 mph - N/A   Overcast
10:30 AM 28.4 °F 20.4 °F 24.8 °F 86% 30.14 in 10.0 mi NW 8.1 mph - N/A   Overcast
10:37 AM 28.4 °F 22.2 °F 24.8 °F 86% 30.15 in 10.0 mi NW 5.8 mph - N/A   Overcast
10:56 AM 28.0 °F 20.8 °F 21.9 °F 78% 30.21 in 10.0 mi NW 6.9 mph - N/A   Overcast
11:37 AM 28.4 °F 19.1 °F 21.2 °F 74% 30.14 in 9.0 mi WNW 10.4 mph - N/A   Overcast
11:56 AM 28.9 °F 18.6 °F 21.0 °F 72% 30.19 in 9.0 mi NNW 12.7 mph - N/A   Overcast
12:06 PM 28.4 °F 19.7 °F 21.2 °F 74% 30.13 in 2.5 mi NW 9.2 mph 17.3 mph 0.00 in Snow Light Snow
12:20 PM 28.4 °F 19.1 °F 21.2 °F 74% 30.12 in 5.0 mi NW 10.4 mph - 0.00 in   Haze
12:56 PM 28.9 °F 21.1 °F 21.0 °F 72% 30.18 in 9.0 mi NNW 8.1 mph - 0.00 in   Overcast
1:22 PM 28.4 °F 21.2 °F 19.4 °F 69% 30.11 in 7.0 mi NW 6.9 mph - N/A   Overcast
1:37 PM 28.4 °F 22.2 °F 21.2 °F 74% 30.10 in 4.0 mi WNW 5.8 mph - N/A   Haze
1:48 PM 28.4 °F 21.2 °F 21.2 °F 74% 30.10 in 8.0 mi NW 6.9 mph - N/A   Overcast
1:56 PM 28.9 °F 21.1 °F 19.9 °F 69% 30.17 in 10.0 mi NNW 8.1 mph - N/A   Overcast
2:11 PM 28.4 °F 22.2 °F 21.2 °F 74% 30.10 in 9.0 mi NNW 5.8 mph - N/A   Overcast
2:20 PM 28.4 °F 21.2 °F 21.2 °F 74% 30.10 in 7.0 mi NW 6.9 mph - N/A   Overcast
2:56 PM 28.0 °F 24.2 °F 21.9 °F 78% 30.16 in 3.0 mi NNW 3.5 mph - 0.00 in Snow Light Snow
3:07 PM 28.4 °F 21.2 °F 21.2 °F 74% 30.10 in 9.0 mi WNW 6.9 mph - 0.00 in   Overcast
3:15 PM 28.4 °F 22.2 °F 21.2 °F 74% 30.10 in 9.0 mi NNW 5.8 mph - 0.00 in   Overcast
3:56 PM 27.0 °F 20.5 °F 21.0 °F 78% 30.17 in 10.0 mi WNW 5.8 mph - 0.00 in   Overcast
4:39 PM 26.6 °F 20.0 °F 21.2 °F 80% 30.11 in 2.5 mi WNW 5.8 mph - 0.00 in Snow Light Snow
4:48 PM 26.6 °F 21.2 °F 23.0 °F 86% 30.11 in 1.0 mi NW 4.6 mph - 0.00 in Snow Light Snow
4:56 PM 26.1 °F 21.9 °F 24.1 °F 92% 30.18 in 0.5 mi NNW 3.5 mph - 0.00 in Fog , Snow Light Snow
5:02 PM 26.6 °F 21.2 °F 24.8 °F 93% 30.12 in 1.0 mi North 4.6 mph - 0.00 in Snow Light Snow
5:09 PM 26.6 °F 21.2 °F 24.8 °F 93% 30.12 in 1.5 mi North 4.6 mph - 0.00 in Snow Light Snow
5:21 PM 24.8 °F 16.9 °F 21.2 °F 86% 30.12 in 3.0 mi NNW 6.9 mph - 0.00 in Snow Light Snow
5:36 PM 24.8 °F 20.5 °F 21.2 °F 86% 30.12 in 4.0 mi NNW 3.5 mph - 0.00 in Snow Light Snow
5:47 PM 24.8 °F 17.9 °F 21.2 °F 86% 30.12 in 2.5 mi North 5.8 mph - 0.00 in Snow Light Snow
5:54 PM 24.8 °F 17.9 °F 21.2 °F 86% 30.12 in 4.0 mi North 5.8 mph - 0.00 in Snow Light Snow
5:56 PM 25.0 °F 18.1 °F 21.9 °F 88% 30.19 in 4.0 mi NNW 5.8 mph - 0.00 in Snow Light Snow
6:40 PM 24.8 °F 17.9 °F 21.2 °F 86% 30.12 in 10.0 mi NNE 5.8 mph - N/A   Overcast
6:42 PM 24.8 °F 16.9 °F 21.2 °F 86% 30.12 in 10.0 mi North 6.9 mph - N/A   Overcast
6:56 PM 24.1 °F 16.0 °F 21.0 °F 88% 30.19 in 8.0 mi NNE 6.9 mph - N/A   Overcast
7:56 PM 21.9 °F 17.2 °F 19.9 °F 92% 30.19 in 10.0 mi NNE 3.5 mph - 0.00 in   Overcast
8:56 PM 23.0 °F 18.4 °F 21.0 °F 92% 30.19 in 10.0 mi NNE 3.5 mph - N/A   Overcast
9:27 PM 23.0 °F - 19.4 °F 86% 30.12 in 10.0 mi Calm Calm - N/A   Overcast
9:56 PM 23.0 °F 18.4 °F 19.9 °F 88% 30.18 in 10.0 mi NE 3.5 mph - N/A   Overcast
10:20 PM 23.0 °F 18.4 °F 19.4 °F 86% 30.12 in 10.0 mi North 3.5 mph - N/A   Overcast
10:43 PM 23.0 °F - 19.4 °F 86% 30.11 in 10.0 mi Calm Calm - N/A   Overcast
10:56 PM 23.0 °F - 19.9 °F 88% 30.18 in 10.0 mi Calm Calm - N/A   Overcast
11:28 PM 23.0 °F - 19.4 °F 86% 30.12 in 10.0 mi Calm Calm - N/A   Overcast
11:56 PM 23.0 °F 17.0 °F 19.0 °F 85% 30.19 in 6.0 mi NW 4.6 mph - 0.00 in Snow Light Snow